Location: Angwan Shehu
(11.2514°N, 7.4613°E)
Time: 03:15:17
(UTC+00:00)

Vanguard 3 - Pass Details

Date: 06 August 2021
Orbit: 510 x 3260 km, 33.3° (Epoch: 16 September)

Event Time Altitude Azimuth Distance (km) Brightness Sun altitude
Rises 18:26:29 0° 301° (WNW) 5,689 13.4 -8.6°
Reaches altitude 10° 18:30:26 10° 311° (NW) 5,045 12.4 -9.5°
Maximum altitude 18:44:32 35° 12° (NNE) 4,220 10.8 -12.8°
Drops below altitude 10° 19:01:49 10° 72° (ENE) 6,152 11.2 -16.8°
Enters shadow 19:04:12 - 76° (ENE) 6,527 11.3 -17.3°
